EHI
0 0 0 0 0 0 0 0 0 0 0 0 0 0 0 0 0 0 0 0 0 0 0 0 0 0 0 0 0 0 0 0 0 0 0 0 0 0 0 0 0 0 0
0 0 0 0 0 0 0 0 0 0 0 0 0 0 0 0 0 0 0 0 0 0 0 0 0 0 0 0 0 0 0 0 0 0 0 0 0 0 0 0 0 0 0
0 0 0 0 0 0 0 0 0 0 0 0 0 0 0 0 0 0 0 0 0 0 0 0 0 0 0 0 0 0 0 0 0 0 0 0 0 0 0 0 0 0 0
0 0 0 0 0 0 0 0 0 0 0 0 0 0 0 0 0 0 0 0 0 0 0 0 0 0 0 0 0 0 0 0 0 0 0 0 0 0 0 0 0 0 0
0 0 0 0 0 0 0 0 0 0 0 0 0 0 0 0 0 0 0 0 0 0 0 0 0 0 0 0 0 0 0 0 0 0 0 0 0 0 0 0 0 0 0
0 0 0 0 0 0 0 0 0 0 0 0 0 0 0 0 0 0 0 0 0 0 0 0 0 0 0 0 0 0 0 0 0 0 0 0 0 0 0 0 0 0 0
0 0 0 0 0 0 0 0 0 0 0 0 0 0 0 0 0 0 0 0 0 0 0 0 0 0 0 0 0 0 0 0 0 0 0 0 0 0 0 0 0 0 0
0 0 0 0 0 0 0 0 0 0 0 0 0 0 0 0 0 0 0 0 0 0 0 0 0 0 0 0 0 0 0 0 0 0 0 0 0 0 0 0 0 0 0
0 0 0 0 0 0 0 0 0 0 0 0 0 0 0 0 0 0 0 0 0 0 0 0 0 0 0 0 0 0 0 0 0 0 0 0 0 0 0 0 0 0 0
0 0 0 0 0 0 0 0 0 0 0 0 0 0 0 0 0 0 0 0 0 0 0 0 0 0 0 0 0 0 0 0 0 0 0 0 0 0 0 0 0 0 0
0 0 0 0 0 0 0 0 0 0 0 0 0 0 0 0 0 0 0 0 0 0 0 0 0 0 0 0 0 0 0 0 0 0 0 0 0 0 0 0 0 0 0
0 0 0 0 0 0 0 0 0 0 0 0 0 0 0 0 0 0 0 0 0 0 0 0 0 0 0 0 0 0 0 0 0 0 0 0 0 0 0 0 0 0 0
0 0 0 0 0 0 0 0 0 0 0 0 0 0 0 0 0 0 0 0 0 0 0 0 0 0 0 0 0 0 0 0 0 0 0 0 0 0 0 0 0 0 0
0 0 0 0 0 0 0 0 0 0 0 0 0 0 0 0 0 0 0 0 0 0 0 0 0 0 0 0 0 0 0 0 0 0 0 0 0 0 0 0 0 0 0
0 0 0 0 0 0 0 0 0 0 0 0 0 0 0 0 0 0 0 0 0 0 0 0 0 0 0 0 0 0 0 0 0 0 0 0 0 0 0 0 0 0 0
0 0 0 0 0 0 0 0 0 0 0 0 0 0 0 0 0 0 0 0 0 0 0 0 0 0 0 0 0 0 0 0 0 0 0 0 0 0 0 0 0 0 0
0 0 0 0 0 0 0 0 0 0 0 0 0 0 0 0 0 0 0 0 0 0 0 0 0 0 0 0 0 0 0 0 0 0 0 0 0 0 0 0 0 0 0
0 0 0 0 0 0 0 0 0 0 0 0 0 0 0 0 0 0 0 0 0 0 0 0 0 0 0 0 0 0 0 0 0 0 0 0 0 0 0 0 0 0 0
0 0 0 0 0 0 0 0 0 0 0 0 0 0 0 0 0 0 0 0 0 0 0 0 0 0 0 0 0 0 0 0 0 0 0 0 0 0 0 0 0 0 0
0 0 0 0 0 0 0 0 0 0 0 0 0 0 0 0 0 0 0 0 0 0 0 0 0 0 0 0 0 0 0 0 0 0 0 0 0 0 0 0 0 0 0
0 0 0 0 0 0 0 0 0 0 0 0 0 0 0 0 0 0 0 0 0 0 0 0 0 0 0 0 0 0 0 0 0 0 0 0 0 0 0 0 0 0 0
0 0 0 0 0 0 0 0 0 0 0 0 0 0 0 0 0 0 0 0 0 0 0 0 0 0 0 0 0 0 0 0 0 0 0 0 0 0 0 0 0 0 0
0 0 0 0 0 0 0 0 0 0 0 0 0 0 0 0 0 0 0 0 0 0 0 0 0 0 0 0 0 0 0 0 0 0 0 0 0 0 0 0 0 0 0
0 0 0 0 0 0 0 0 0 0 0 0 0 0 0 0 0 0 0 0 0 0 0 0 0 0 0 0 0 0 0 0 0 0 0 0 0 0 0 0 0 0 0
0 0 0 0 0 0 0 0 0 0 0 0 0 0 0 0 0 0 0 0 0 0 0 0 0 0 0 0 0 0 0 0 0 0 0 0 0 0 0 0 0 0 0
0 0 0 0 0 0 0 0 0 0 0 0 0 0 0 0 0 0 0 0 0 0 0 0 0 0 0 0 0 0 0 0 0 0 0 0 0 0 0 0 0 0 0
Wind_Speed
15 12 13 13 13 13 13 14 12 10 7 4 3 3 3 2 3 3 5 5 5 4 3 3 3 3 3 4 5 4 5 4 4 5 8 9 8 8 7 7 9 12 13
11 12 12 14 16 17 16 15 14 12 10 6 4 4 3 3 3 3 3 5 5 4 3 3 3 3 3 4 5 4 3 4 4 4 8 8 8 7 11 7 8 10 9
16 14 15 17 17 18 19 17 15 13 11 8 4 3 2 1 2 3 3 4 4 4 4 4 4 4 3 4 5 5 5 5 5 3 3 7 8 12 10 11 9 8 9
14 14 16 17 19 19 16 15 15 13 11 10 7 7 6 5 5 3 3 4 4 4 4 4 4 4 4 5 6 5 4 5 6 5 4 5 6 7 10 11 8 9 11
14 15 17 19 17 15 15 14 14 13 12 11 10 8 6 5 3 3 4 4 3 4 5 5 4 4 4 5 6 6 6 4 6 6 5 5 5 6 6 13 16 13 9
13 13 11 11 12 12 13 13 15 14 13 12 10 10 9 7 6 5 5 4 3 4 5 5 5 5 5 6 6 6 7 6 7 6 5 6 6 6 6 9 13 15 14
10 11 11 13 14 16 16 15 16 14 13 13 11 11 10 9 9 7 6 5 3 3 6 6 5 5 6 6 6 6 6 6 7 7 6 6 7 7 7 9 12 15 14
9 12 14 15 16 17 17 17 18 15 14 14 12 10 9 7 6 7 6 6 5 5 6 6 6 7 7 7 6 6 7 7 7 9 8 7 8 6 6 6 9 13 13
10 11 11 13 15 17 19 20 19 15 15 14 12 10 9 8 8 7 6 5 5 5 7 6 7 7 7 7 7 6 8 7 8 9 9 9 8 7 7 7 7 9 14
9 10 10 13 14 15 15 15 16 16 13 13 12 10 9 9 8 7 7 7 7 6 6 6 7 7 7 7 7 7 8 8 9 8 10 10 9 8 8 7 7 8 11
12 12 12 11 11 10 13 15 15 13 13 13 12 10 9 9 8 7 7 7 6 6 7 7 7 7 8 7 7 8 9 10 11 11 11 13 11 9 9 8 8 8 10
10 9 9 9 11 13 14 15 15 15 14 13 12 11 9 8 8 8 8 7 7 6 7 7 7 8 8 8 8 10 11 11 13 14 13 14 12 12 9 8 9 9 10
9 7 7 10 13 14 15 15 16 15 13 12 12 11 10 9 9 8 7 7 7 6 6 6 7 8 8 9 9 10 11 13 14 14 14 14 13 12 10 10 10 10 11
9 8 9 11 12 13 14 15 15 14 13 13 13 13 12 11 9 8 7 7 7 6 7 7 8 8 8 9 10 11 12 13 14 13 13 12 12 12 12 11 11 11 11
10 10 12 11 11 12 13 14 15 14 14 14 14 14 11 9 8 8 8 7 7 7 6 7 8 9 8 8 10 11 12 11 10 9 9 10 13 17 14 11 9 9 9
11 11 11 11 12 15 15 15 16 15 14 15 14 12 10 10 9 9 8 7 7 6 6 7 8 9 9 16 21 17 8 7 7 7 8 9 12 16 20 23 21 17 11
11 11 11 13 14 15 16 17 16 14 15 15 13 12 11 11 11 10 9 8 7 6 7 7 8 9 12 20 20 21 9 5 6 7 7 8 10 15 9 16 20 16 20
11 10 9 10 11 11 12 12 12 14 15 14 13 13 12 12 10 10 10 9 6 6 6 7 8 9 11 18 19 20 7 6 7 7 8 9 9 12 15 11 8 9 10
10 9 8 8 7 9 11 11 13 14 15 16 15 15 14 13 12 12 11 9 7 7 7 7 8 8 10 15 17 17 5 6 7 7 8 9 9 19 23 10 7 9 8
8 8 7 6 7 7 10 13 15 16 18 18 16 15 14 14 14 13 11 8 7 7 7 7 6 7 7 13 16 15 4 6 6 6 7 13 16 20 19 7 6 9 9
11 9 7 7 8 7 11 14 16 19 17 13 13 14 14 14 13 11 9 8 7 6 6 6 6 6 7 10 14 15 5 5 5 6 5 8 19 20 19 15 8 13 11
12 10 8 10 8 9 13 15 18 15 11 13 14 14 14 12 11 11 10 8 8 6 6 5 6 5 6 8 11 14 13 11 5 6 6 9 18 18 18 14 16 19 15
11 9 9 11 8 10 14 18 16 12 13 15 15 14 14 13 11 12 11 8 7 6 5 5 5 4 4 6 12 13 14 14 7 5 12 15 17 15 12 16 19 14 8
11 9 8 10 12 11 15 17 10 12 14 16 15 14 14 13 12 10 9 8 8 7 6 6 5 4 4 4 5 6 6 9 8 6 8 13 13 12 13 13 10 7 7
9 8 8 12 14 10 13 13 10 14 15 15 14 13 13 12 11 11 9 10 8 8 7 6 5 4 4 6 10 6 4 4 4 4 3 4 6 7 7 8 7 7 7
9 9 10 12 13 9 11 11 12 15 15 13 13 11 10 10 10 9 8 14 12 15 16 13 10 7 9 10 10 10 9 9 8 4 3 5 6 7 9 9 9 8 8
Wind_Direction
224 208 200 189 181 181 181 180 177 175 164 155 163 175 204 218 238 233 217 210 214 224 234 260 266 270 274 281 290 292 298 295 292 303 311 304 293 289 286 282 284 287 289
222 210 197 189 188 187 186 184 183 179 178 172 164 167 170 198 218 225 211 216 220 232 243 243 256 266 273 285 291 292 286 289 311 303 315 312 311 310 313 288 288 288 287
223 212 202 197 194 193 190 188 185 181 180 169 149 144 136 198 220 216 224 233 233 237 244 252 254 261 255 268 279 282 273 288 295 261 272 301 306 316 304 306 298 292 291
223 213 205 201 201 199 190 186 182 180 177 169 167 167 180 199 213 208 218 239 242 241 246 252 255 256 254 262 274 290 274 277 292 292 247 246 272 297 307 309 300 295 299
219 215 208 205 202 192 186 184 179 180 177 176 176 175 189 200 208 215 230 238 244 247 253 253 252 251 253 260 267 276 272 262 270 282 282 280 277 259 283 304 311 311 305
219 219 210 196 190 182 182 180 181 183 180 180 180 183 190 196 205 217 227 234 239 250 255 255 248 249 253 259 263 262 263 262 265 274 271 272 275 287 285 293 302 305 307
213 210 199 193 188 184 186 185 185 186 184 184 188 190 191 193 204 210 219 223 231 238 249 253 250 251 252 258 258 257 258 258 262 266 270 267 263 268 275 285 296 298 300
214 210 204 197 192 189 188 187 190 188 186 189 194 192 190 192 203 207 206 214 221 232 242 245 246 250 255 264 258 259 259 262 259 272 271 270 269 261 258 265 286 297 299
221 215 204 197 193 191 192 191 190 189 190 192 191 192 191 193 200 203 207 217 225 237 239 239 246 254 257 257 257 258 261 264 264 267 269 266 268 262 256 254 258 277 295
234 223 209 203 199 196 193 190 191 192 188 189 191 194 193 196 196 198 210 219 230 238 244 247 250 256 258 258 257 260 263 264 268 267 266 266 266 264 261 256 254 255 270
230 224 216 206 195 187 188 191 192 191 189 191 191 190 189 193 194 202 212 220 228 233 238 245 250 255 258 258 258 264 267 266 271 271 269 270 269 266 264 260 259 260 263
237 226 211 192 190 193 193 194 195 195 194 190 189 192 187 187 196 207 216 219 226 232 238 246 253 258 262 259 260 269 276 271 272 273 272 272 273 268 265 263 264 266 266
254 234 207 201 203 200 198 198 198 197 191 186 188 191 192 193 202 209 214 216 221 233 242 248 255 260 262 264 264 264 270 271 271 273 274 274 273 270 266 265 267 269 271
250 233 223 217 211 204 201 200 200 195 188 187 190 195 199 199 202 204 208 214 219 232 245 251 257 261 263 264 269 269 268 270 271 272 272 271 268 266 265 267 265 268 273
250 234 230 224 213 207 205 203 200 194 190 190 195 200 196 192 193 199 207 214 222 237 245 256 264 268 269 265 264 262 263 270 275 274 269 270 277 278 279 276 268 272 279
255 245 237 227 218 212 209 204 201 195 189 193 198 194 185 188 195 202 207 215 226 238 248 256 264 272 275 287 294 296 279 278 280 277 275 278 283 288 295 300 300 297 296
263 254 242 231 225 217 208 206 201 190 191 196 194 188 186 192 198 204 209 218 226 236 249 257 263 268 277 292 297 302 303 277 274 275 279 289 290 301 288 290 294 295 297
267 263 253 241 231 217 207 201 190 190 194 195 192 188 187 193 195 202 214 220 221 232 246 257 263 269 279 295 302 304 307 274 272 273 275 278 280 285 288 279 268 264 274
266 266 260 247 233 213 196 186 191 193 197 198 195 191 188 189 194 206 215 216 217 231 242 252 259 266 280 297 301 307 290 281 280 279 279 287 280 291 303 305 285 283 283
279 277 275 254 234 209 180 187 196 199 205 201 196 189 187 190 198 207 212 210 213 228 242 253 254 262 272 292 302 308 292 290 286 283 285 304 309 311 323 321 297 295 295
284 280 270 253 238 197 182 198 203 210 208 194 187 186 189 193 197 202 206 206 213 225 236 252 259 262 273 293 303 305 303 294 294 299 301 304 316 326 333 334 316 311 326
286 279 265 257 238 194 192 207 215 211 188 182 185 187 188 190 192 195 201 204 208 220 236 249 260 253 266 287 296 306 316 320 300 300 300 304 324 336 337 331 325 335 338
280 274 258 261 245 206 202 217 219 190 179 184 189 187 187 190 189 191 196 199 203 213 229 237 253 257 254 277 298 309 316 321 318 303 318 328 335 337 331 326 335 339 325
279 276 265 259 255 224 215 223 206 180 182 188 190 187 186 189 191 191 194 196 199 206 217 228 241 250 259 270 278 277 289 308 315 317 323 333 336 336 330 331 328 320 315
283 278 263 260 260 241 224 218 194 182 188 191 190 188 189 187 190 195 198 199 201 197 202 214 221 229 247 262 283 298 290 295 306 329 321 325 332 335 330 325 322 320 322
293 291 281 272 270 254 233 211 194 189 189 192 191 188 186 185 187 189 199 218 212 221 226 222 215 228 245 272 292 308 317 323 339 352 324 330 332 330 327 325 325 325 327